Theta_e
319 318 316 319 321 321 323 324 326 326 323 319 318 320 320 321 320 319 318 319 321 320 319 320 323 323 323 322 321 326 326 327 326 330 340 341 337 339 340 339 337 334 334 333 333 333 333 332 332 333 333 334 334 333 333 333 332 329 326 323 323 324 324 325 325 321 315 313 311 309 309 308 308 308 308 309 310 315 321 322 323 327 328 328 331 330 324 314 310 310 309 308 307 308 307 307 308
318 318 317 321 321 322 324 325 325 323 320 318 318 320 319 320 320 321 320 321 321 319 319 319 322 322 321 321 320 325 329 331 330 333 340 339 339 341 339 337 336 334 334 334 333 333 332 332 333 333 333 334 333 333 332 331 329 326 324 321 320 322 325 326 324 320 317 314 312 310 309 308 307 308 308 309 309 314 319 322 325 327 326 328 330 328 320 310 308 307 307 308 308 308 308 308 308
318 317 318 322 322 323 325 325 323 321 318 317 318 320 320 320 321 322 321 321 320 319 320 319 321 321 321 323 321 324 330 333 335 336 339 339 340 340 339 337 335 335 335 334 334 334 333 333 333 333 334 333 331 331 331 329 326 323 323 320 319 323 325 325 323 320 319 316 314 312 310 309 307 306 307 308 310 314 317 323 326 326 326 328 329 326 316 308 307 307 308 308 308 308 308 308 308
318 317 317 322 325 326 327 327 324 321 317 317 317 320 321 322 322 322 321 321 320 320 320 319 322 321 321 323 322 326 331 334 337 337 338 339 339 340 340 337 336 336 335 335 335 335 334 333 333 333 333 331 327 326 327 327 324 322 322 319 318 323 325 324 320 320 320 318 317 314 312 311 309 307 305 306 308 311 317 323 326 327 329 328 326 323 314 309 308 308 308 307 308 308 308 309 309
318 317 316 321 328 327 326 325 323 320 318 318 318 320 321 322 322 320 320 320 319 321 321 320 323 321 319 322 325 328 331 334 337 336 338 339 337 338 339 338 337 337 336 336 335 335 334 333 333 332 333 331 328 325 325 324 323 322 322 319 319 324 325 322 320 319 319 318 318 317 315 313 312 309 305 305 305 308 316 322 321 323 326 324 321 320 318 317 314 309 308 307 308 308 309 309 308
318 318 318 320 325 325 325 323 320 319 319 320 319 320 321 321 321 320 319 319 319 320 320 321 321 321 321 323 325 329 330 332 336 337 338 339 337 338 338 338 339 337 336 336 336 335 334 333 333 332 333 332 330 329 326 324 323 323 321 318 320 325 325 324 323 320 317 318 318 318 317 315 314 312 308 306 305 309 317 322 322 323 326 322 320 322 324 323 315 308 307 307 308 308 309 309 308
319 322 323 322 324 324 326 324 321 320 319 321 320 320 321 320 321 320 319 319 318 319 318 320 318 319 323 323 324 327 329 330 336 337 337 339 337 337 338 339 339 338 337 336 335 335 334 333 333 332 332 332 331 330 327 325 324 322 320 319 322 326 326 327 327 321 318 317 317 317 317 317 315 314 312 308 307 312 320 323 323 324 325 323 323 324 322 318 310 306 307 307 307 308 308 308 308
319 323 324 324 327 325 325 324 321 322 320 320 320 319 320 320 321 319 319 319 318 318 318 318 317 319 321 323 327 326 328 329 334 337 336 337 336 336 337 339 339 338 339 337 335 336 334 333 333 332 332 332 332 330 327 325 324 321 320 320 322 326 328 329 328 323 320 319 317 316 316 316 315 315 313 311 307 313 321 322 322 322 322 322 324 321 315 310 307 306 307 306 307 307 307 307 307
319 322 323 324 327 325 323 323 321 321 320 320 319 319 320 320 320 319 319 318 318 318 318 318 317 319 319 325 328 325 326 326 329 333 332 333 335 335 337 339 339 339 339 338 336 336 334 333 332 332 332 331 332 330 326 325 323 321 320 321 322 326 328 329 328 324 321 320 319 317 316 315 314 315 314 312 308 311 319 320 321 323 323 323 321 316 310 307 306 306 306 305 306 305 305 305 305
321 322 323 325 326 323 320 321 323 321 320 320 319 318 319 319 320 319 319 318 318 319 319 318 318 318 318 325 327 326 325 322 325 329 327 331 334 334 337 339 340 339 339 338 337 336 334 334 333 332 332 331 332 330 326 324 323 322 321 321 323 326 327 327 327 323 321 321 320 319 318 317 315 315 314 313 309 308 313 314 318 320 319 317 313 309 307 306 306 305 304 305 305 305 306 305 305
324 321 321 325 324 321 319 321 323 322 320 319 319 318 318 318 319 320 319 319 317 319 320 317 318 317 318 326 329 329 324 318 321 325 324 331 333 332 337 339 340 339 338 338 337 335 335 334 334 333 332 332 332 330 327 324 323 323 322 322 323 326 327 326 326 323 321 321 321 321 320 319 317 317 315 313 309 307 307 307 310 311 309 308 307 306 306 305 305 305 307 308 309 310 309 308 307
327 325 322 323 324 323 321 321 321 321 321 319 319 318 318 318 318 319 318 318 317 319 319 316 319 318 318 325 328 328 322 318 319 322 324 330 332 331 336 338 339 339 338 338 337 336 335 335 334 333 332 333 332 331 328 326 323 323 322 322 324 327 327 327 327 325 322 322 322 323 322 321 319 318 316 313 310 307 305 304 305 305 305 305 305 305 305 306 308 311 314 314 314 314 313 311 310
326 327 324 323 326 325 321 321 322 321 322 319 318 318 318 318 318 318 317 317 317 318 319 317 319 318 319 326 328 326 321 319 319 321 323 328 332 331 335 338 338 339 338 337 337 336 336 335 334 334 333 333 333 332 330 328 325 324 323 323 324 326 327 328 328 326 324 321 321 323 323 322 320 319 317 313 310 307 305 304 304 304 304 304 305 307 309 312 315 316 317 317 317 316 315 314 312
324 325 325 325 327 325 322 322 322 320 320 320 318 318 318 318 317 318 317 317 317 318 319 317 318 318 320 324 326 326 322 319 318 320 323 326 330 331 335 338 338 339 337 337 337 336 336 335 335 334 334 334 333 332 331 330 327 325 324 324 324 325 327 328 328 327 326 322 320 321 323 323 322 320 318 314 311 309 306 305 305 305 306 307 309 312 315 317 318 318 319 318 318 317 316 315 313
323 323 324 325 324 323 322 322 323 321 320 319 318 318 318 318 317 318 317 317 318 318 318 317 317 318 319 323 325 324 322 318 314 318 323 325 329 332 336 338 337 339 337 337 337 336 336 336 336 335 335 334 333 333 332 331 330 328 326 325 324 324 326 328 327 327 326 322 321 320 321 322 323 322 320 316 313 312 310 309 309 310 312 313 315 316 317 318 319 319 320 319 319 318 317 316 314
321 322 325 324 322 322 322 322 322 320 319 319 318 318 317 317 317 317 317 317 317 317 317 317 316 317 320 325 325 322 320 316 313 317 321 324 328 333 336 336 336 338 337 337 336 336 336 336 337 336 335 335 334 334 333 332 331 330 328 326 325 325 326 327 327 327 326 323 322 321 320 321 322 323 322 319 316 315 315 314 314 315 316 317 317 318 318 319 320 320 320 320 319 318 317 316 314
319 323 325 322 322 322 322 322 321 320 319 318 317 318 317 317 317 316 317 316 317 317 317 317 317 316 318 322 323 322 320 317 314 315 319 320 324 333 336 335 335 336 335 336 337 337 337 336 337 337 336 335 335 335 334 334 332 331 330 329 327 326 326 326 327 327 326 324 323 322 322 321 321 323 323 321 319 318 318 318 317 318 319 319 319 319 319 319 320 320 320 320 319 319 317 316 314
320 323 323 322 323 322 323 321 320 321 319 317 317 317 317 317 316 316 316 316 316 317 317 317 316 316 315 317 319 319 319 317 315 314 316 316 319 328 333 332 333 333 332 334 336 336 337 336 337 337 336 336 336 336 335 335 334 332 331 331 330 328 326 326 326 327 327 325 324 323 324 323 321 322 324 323 321 320 319 320 320 320 320 321 320 319 319 320 320 320 320 320 320 319 318 317 315
322 324 322 322 323 321 320 320 318 320 319 317 317 317 317 317 316 316 315 316 316 316 317 317 316 316 316 316 316 316 317 317 315 314 315 315 315 320 325 327 328 330 330 331 332 334 336 336 336 336 336 336 336 336 336 336 335 334 332 332 331 330 329 327 326 327 327 326 325 324 326 327 324 322 323 325 323 321 320 321 321 321 322 322 321 320 320 320 320 321 321 320 320 319 319 318 316
321 323 323 323 322 320 319 319 318 319 319 318 317 316 317 317 317 316 316 316 316 316 316 317 317 316 316 315 316 315 315 315 314 314 313 314 314 314 318 320 321 324 326 329 330 330 333 334 335 335 335 336 335 335 335 335 335 334 334 333 332 332 331 330 328 327 327 327 326 326 328 328 326 324 323 324 325 323 322 321 322 322 322 322 322 321 320 320 320 321 321 321 320 320 320 319 317
320 321 322 321 320 320 318 318 317 318 318 319 318 317 317 317 317 317 316 316 316 317 317 317 317 317 317 316 316 315 315 315 314 314 313 314 314 314 314 315 316 319 321 324 325 325 329 331 332 334 335 335 335 334 335 335 335 335 334 334 333 333 332 332 331 329 329 328 328 328 330 329 328 327 324 324 325 324 323 322 322 322 323 323 322 322 321 321 321 321 321 321 321 320 320 319 318
320 319 319 318 318 319 317 317 317 317 318 318 318 317 317 317 317 317 317 317 317 318 318 318 318 318 317 317 316 316 315 315 315 314 314 314 314 313 314 314 315 318 319 318 319 320 324 326 328 331 334 334 334 335 334 334 334 334 334 334 334 333 332 332 332 331 330 329 329 329 330 330 329 328 326 325 325 325 324 323 322 323 323 323 323 323 322 322 321 321 322 321 320 319 319 319 318
318 319 318 317 318 318 317 317 316 317 318 318 317 317 317 317 317 317 317 316 317 318 318 318 318 318 318 317 317 316 316 316 316 315 315 315 314 314 314 314 315 316 317 315 315 317 319 322 323 326 331 333 333 334 334 333 333 334 334 334 333 333 332 332 331 331 331 330 330 329 330 330 330 329 328 327 325 325 325 324 323 323 323 323 323 323 323 323 323 323 322 321 320 319 319 318 318
317 317 317 317 317 317 316 316 315 316 317 317 317 317 317 317 317 317 317 317 317 317 317 317 317 318 318 318 317 316 316 316 316 316 315 315 315 315 314 315 316 316 316 315 314 315 315 318 320 321 326 329 329 331 333 333 331 332 334 334 333 333 332 332 330 330 331 331 330 329 330 330 330 329 329 328 326 326 326 325 324 323 323 323 324 324 324 324 324 323 322 321 320 319 318 318 317
315 316 318 317 317 316 315 315 315 315 316 316 316 317 317 317 317 317 317 317 317 317 317 317 317 317 317 316 316 316 316 316 316 315 316 315 315 315 315 317 319 318 316 316 314 315 315 315 317 318 321 323 324 325 328 330 330 332 333 333 333 333 332 331 331 330 331 331 331 330 330 330 330 329 329 329 327 327 326 326 325 324 324 324 324 324 324 324 324 324 322 321 320 319 319 317 316
316 317 318 317 317 316 315 316 315 316 316 316 316 317 317 317 317 317 317 317 318 317 317 317 317 317 316 316 316 316 316 316 316 316 315 315 315 315 315 317 319 318 316 316 315 315 315 314 316 317 318 319 320 321 322 323 325 329 332 332 332 333 332 331 331 331 331 331 330 330 330 330 330 329 329 329 328 327 326 326 325 325 324 324 324 325 324 324 324 324 323 322 320 319 319 317 315
317 318 318 317 317 316 316 317 316 316 316 315 316 317 317 317 317 317 318 318 317 317 317 317 317 317 316 316 316 316 316 316 316 316 316 316 315 315 316 316 317 318 317 317 315 314 315 315 315 315 317 318 319 319 318 318 319 322 328 330 330 331 331 331 331 330 330 330 330 330 331 330 330 329 329 329 328 328 327 326 326 326 325 325 324 325 324 324 324 324 324 322 319 319 319 317 314
318 318 317 317 317 317 317 317 316 316 317 316 316 317 317 316 317 317 317 318 318 317 317 317 317 317 316 316 316 316 316 316 316 316 316 316 316 316 316 316 316 317 317 316 315 315 315 315 314 315 315 317 318 317 317 317 316 316 321 326 328 329 330 332 331 330 329 329 329 329 330 330 330 330 330 329 329 328 328 327 327 326 326 326 324 325 325 324 324 324 324 322 319 318 318 319 314
318 318 318 317 317 317 317 317 317 317 317 317 316 317 318 317 318 317 317 318 318 318 318 317 317 317 317 316 316 316 316 316 316 316 316 316 316 316 316 316 316 316 316 316 316 316 315 315 314 314 315 316 317 316 316 317 317 315 316 319 322 324 327 330 330 330 329 329 329 328 329 331 330 330 330 329 329 329 329 328 328 327 327 327 325 324 325 324 324 324 324 322 319 317 318 320 315
318 317 318 318 318 317 318 317 317 317 316 317 317 318 319 318 318 318 317 318 317 317 317 317 318 317 317 317 317 317 316 316 317 316 317 316 316 316 316 316 316 316 316 316 316 315 316 315 314 314 314 315 315 315 316 316 315 315 314 315 315 317 321 324 325 328 329 329 329 328 329 331 330 330 330 329 329 329 329 328 328 328 327 327 326 325 325 324 324 324 323 321 319 318 318 321 317
318 317 318 320 318 318 318 318 317 317 317 316 317 318 319 318 318 318 318 318 317 317 317 317 318 318 318 318 318 317 317 317 317 317 317 317 316 316 316 316 316 316 316 316 316 315 315 315 315 314 314 314 314 314 315 314 314 314 315 314 314 315 316 317 318 321 327 330 329 328 329 330 330 330 329 330 329 329 329 328 328 328 327 327 327 326 325 324 324 323 323 321 319 319 318 321 319
318 318 318 320 319 319 319 318 317 317 317 316 317 319 319 318 318 319 318 318 318 317 318 318 318 319 318 318 318 318 318 318 317 317 317 317 317 316 316 316 316 316 316 316 316 315 315 315 315 315 314 314 314 314 314 314 314 314 314 314 315 315 315 315 314 315 320 326 328 328 328 328 328 329 329 329 329 330 329 329 328 327 327 327 327 327 325 325 324 323 323 322 320 320 319 320 320
319 318 319 320 319 319 319 317 317 317 317 316 317 319 319 318 318 318 318 318 318 318 318 318 319 319 319 319 319 318 318 318 317 317 317 317 317 317 317 316 316 316 316 316 315 315 315 315 315 315 315 314 314 314 314 313 313 313 313 314 314 314 314 315 314 315 317 321 323 325 326 327 327 328 329 328 328 329 329 329 328 327 327 327 326 327 326 325 325 324 323 322 321 320 320 319 320
320 319 319 321 320 319 318 318 317 317 317 317 317 318 318 318 318 318 318 318 318 318 318 319 319 319 319 319 319 319 318 318 318 318 318 318 318 317 317 317 317 316 316 316 315 315 315 315 315 315 314 314 314 313 313 313 313 313 313 313 314 314 314 314 314 316 318 319 321 321 322 324 327 329 328 327 328 328 328 329 328 326 327 327 326 326 326 326 324 324 323 323 322 320 321 320 319
321 320 318 319 321 319 319 319 317 317 317 317 318 318 318 318 318 318 319 318 318 318 318 318 319 319 319 319 319 319 319 319 319 319 319 319 319 318 318 317 317 316 316 316 316 315 315 315 315 315 315 314 314 313 313 313 313 313 313 313 313 314 314 314 314 314 315 316 318 319 319 320 325 327 324 324 328 328 327 329 328 326 327 327 326 326 326 326 324 324 323 323 323 321 320 321 319
320 321 320 320 321 320 319 318 316 316 318 318 318 318 318 318 318 318 318 318 318 318 318 318 319 318 318 318 318 318 319 319 319 319 319 319 319 319 318 317 317 317 317 317 317 316 316 315 315 315 315 315 314 314 313 313 313 313 312 312 313 313 314 314 314 313 314 313 314 315 316 316 320 324 322 321 325 327 328 329 328 327 327 326 326 325 325 326 326 324 324 323 323 321 320 321 320
318 319 320 320 320 318 318 318 315 315 317 318 318 318 317 318 318 317 318 319 318 318 318 318 318 319 319 318 318 318 318 318 317 318 319 319 319 318 319 318 318 317 317 318 318 318 317 316 315 315 315 315 314 314 314 314 314 313 313 313 313 313 313 313 313 313 312 312 312 311 313 313 316 319 320 321 324 326 327 328 326 326 328 328 327 326 325 326 327 325 324 323 322 322 321 321 320
318 318 319 319 319 318 318 317 316 315 317 318 317 317 317 317 318 318 318 318 318 317 317 318 318 318 319 318 319 318 318 317 317 318 318 318 318 318 318 318 319 318 318 318 318 318 318 317 316 316 315 315 315 314 314 314 314 314 314 313 313 313 313 313 313 313 312 312 312 311 311 313 314 315 317 323 327 328 327 326 324 325 328 328 327 328 326 326 327 326 324 323 322 321 322 321 319
319 319 319 320 321 320 317 317 316 315 317 318 318 318 317 316 317 316 316 317 317 317 317 318 318 318 318 319 318 319 318 318 318 318 319 319 318 318 318 318 318 318 318 318 318 318 318 318 318 317 316 315 315 315 314 314 314 314 314 313 313 313 312 313 312 312 312 311 311 311 311 312 314 313 318 327 330 328 327 325 324 325 326 325 325 328 327 325 326 325 324 323 322 321 321 320 319
320 320 319 321 323 321 318 316 317 316 316 317 318 318 317 317 318 317 316 316 316 317 318 317 318 318 318 319 319 319 319 319 319 319 319 319 319 319 318 317 317 317 317 317 317 317 318 318 318 318 318 317 316 315 315 315 314 313 313 313 313 313 312 313 312 312 312 312 311 312 311 312 314 313 317 327 330 327 325 324 324 325 325 323 322 326 327 324 324 325 324 323 322 322 321 319 319
321 322 320 321 322 320 319 318 317 317 318 319 320 321 321 320 320 319 318 318 317 317 318 318 319 319 319 319 318 319 319 319 319 320 320 320 320 320 319 318 318 317 317 317 317 317 317 318 318 318 318 317 317 316 315 314 314 313 313 313 313 313 312 312 312 312 312 312 311 312 312 311 313 313 313 323 328 324 322 323 324 325 325 323 323 326 327 323 324 325 325 323 321 322 321 319 319
319 323 323 320 319 319 320 321 320 317 318 320 319 322 326 323 318 318 317 320 321 319 319 319 319 319 318 319 318 317 318 318 319 319 320 321 320 320 319 318 318 317 317 317 317 316 317 317 317 317 317 317 317 316 315 314 314 314 313 313 313 313 313 313 313 313 312 312 312 312 313 311 312 313 312 318 323 322 321 322 323 324 324 325 326 326 325 323 323 324 324 323 321 322 321 320 319
317 322 323 319 318 321 320 320 320 319 320 321 318 320 323 319 314 316 317 318 321 321 320 319 319 320 319 318 319 318 318 318 318 319 319 319 320 319 319 318 317 317 316 317 317 317 317 317 317 317 317 317 317 316 316 315 315 314 314 313 314 313 313 313 313 313 312 312 312 311 312 311 311 312 313 316 320 322 323 322 322 324 325 327 326 324 322 321 321 322 323 323 322 322 321 321 320
319 324 323 319 318 322 322 320 321 322 322 321 319 318 321 319 315 316 319 319 320 321 321 319 318 319 319 319 319 319 320 320 320 319 318 318 318 317 317 317 316 316 316 316 317 317 317 317 317 317 316 316 316 316 316 315 315 315 314 313 313 313 313 313 312 313 312 311 311 311 311 311 311 312 314 317 320 323 324 323 324 325 325 326 325 323 322 321 320 320 321 323 323 322 322 321 321
322 324 322 321 321 323 324 321 322 323 322 324 324 321 323 325 319 316 319 318 319 320 321 320 317 318 319 319 320 320 320 321 319 318 318 318 318 317 317 317 317 316 317 316 317 317 317 317 317 317 316 316 315 315 315 315 315 314 314 314 313 313 312 312 312 312 312 311 311 311 311 311 311 313 315 317 320 323 323 324 325 325 326 327 325 323 323 322 320 319 321 323 323 322 322 321 320
321 321 321 323 323 323 323 322 322 322 324 326 327 323 322 325 321 316 317 318 318 321 321 321 319 319 320 320 320 321 320 319 318 318 319 319 318 318 318 318 318 317 317 317 317 317 317 317 317 317 317 316 315 315 315 315 315 314 314 314 314 313 313 312 312 312 312 311 311 311 310 311 311 313 315 317 318 320 323 324 324 326 328 327 325 324 323 321 320 320 322 323 323 322 321 321 320
319 321 323 323 323 323 322 323 321 321 324 325 326 323 319 322 323 317 317 319 320 321 320 321 321 320 320 320 319 319 318 318 318 319 319 320 319 319 319 319 318 318 318 318 318 318 318 318 318 318 317 317 317 316 316 316 315 315 315 315 314 314 313 312 312 311 311 311 311 310 310 310 311 313 315 317 318 320 321 323 324 326 327 326 325 324 323 321 320 320 322 322 322 321 320 320 319
320 323 322 320 322 322 321 322 321 321 323 323 323 323 320 321 323 319 317 319 320 320 319 321 323 320 319 318 318 318 319 319 319 320 319 319 320 319 319 319 318 318 318 319 318 319 319 318 318 318 318 318 318 317 317 317 317 316 316 315 315 314 314 313 312 311 311 311 311 310 310 310 311 312 314 317 318 319 321 322 325 327 327 326 325 324 322 321 320 320 321 320 320 321 320 319 317
322 321 319 318 319 321 322 324 326 324 321 319 320 320 320 320 319 319 320 319 318 318 318 320 320 320 319 319 318 318 319 319 319 319 319 319 319 319 319 318 317 318 318 318 318 318 319 319 318 318 318 318 318 318 318 317 317 317 316 316 315 314 314 313 312 311 310 310 310 310 310 310 310 311 313 316 316 316 320 325 327 327 326 325 323 323 322 321 321 320 320 319 319 319 319 318 318
320 320 321 321 318 318 321 322 325 324 320 320 320 319 320 319 316 319 320 317 317 317 317 319 318 319 319 319 320 319 318 319 319 319 319 319 319 318 318 317 317 318 318 318 319 318 319 318 318 318 318 318 318 318 318 318 317 317 317 316 315 314 314 313 312 312 311 310 310 309 310 310 310 310 313 315 315 316 321 326 327 326 325 323 322 322 321 320 320 319 318 317 316 316 316 317 318
318 318 320 322 319 317 318 319 321 323 321 320 319 320 323 320 316 319 319 316 318 317 317 319 317 318 318 317 319 319 319 319 318 319 319 318 319 318 318 317 317 317 318 319 319 318 319 318 318 318 318 318 318 318 318 317 317 317 317 316 316 315 314 314 313 311 311 310 310 310 309 309 309 309 312 315 315 316 320 324 325 325 323 321 321 321 320 319 319 318 317 316 315 315 316 317 318
318 319 319 321 320 317 317 319 319 320 320 320 321 322 323 320 317 317 317 316 317 317 317 318 317 318 317 316 317 317 318 318 318 319 318 318 318 318 317 317 316 317 319 319 319 319 318 318 318 318 318 317 317 317 317 317 317 317 316 316 316 315 315 314 314 313 312 311 310 310 309 309 309 308 310 314 315 316 319 322 323 322 320 320 321 321 319 319 318 317 317 315 315 317 318 317 317
320 320 321 321 321 317 317 320 318 317 317 319 321 321 318 315 316 317 316 316 315 315 316 315 316 317 316 316 316 316 317 318 317 318 317 317 317 316 317 316 317 318 319 319 318 318 318 318 318 317 317 317 317 317 317 317 317 316 316 316 315 315 315 315 315 314 313 312 311 310 309 309 309 308 310 313 316 317 319 320 320 319 320 321 321 320 319 319 318 317 316 315 315 317 317 316 315
322 323 321 320 321 320 318 319 319 319 317 317 317 315 313 312 315 318 317 316 316 316 316 315 315 316 316 317 316 316 318 318 318 318 317 317 316 316 317 317 318 319 318 319 318 318 318 318 318 318 318 318 318 318 318 317 317 317 317 316 316 315 315 314 315 314 314 313 312 312 310 309 309 308 309 313 315 315 317 319 319 319 321 320 319 318 319 318 316 315 314 314 316 316 316 316 315
319 320 318 319 322 322 320 317 316 317 317 317 316 315 314 313 314 316 315 317 319 318 318 317 316 317 317 317 318 318 318 318 318 318 317 317 316 317 318 318 319 319 318 318 318 318 318 318 318 318 318 318 317 318 318 318 318 318 318 317 317 316 315 315 315 314 314 313 313 312 311 310 310 308 309 312 311 311 315 319 320 320 320 317 317 319 318 316 314 312 313 314 316 316 316 316 314
317 318 318 320 321 321 321 318 315 316 315 316 316 315 315 314 314 315 315 318 319 318 320 320 317 317 318 318 318 317 317 317 317 317 317 317 317 317 318 318 318 318 318 318 318 319 318 318 318 317 317 318 317 317 317 317 317 317 317 318 317 317 316 315 314 314 314 313 313 313 311 310 309 308 308 309 309 312 317 320 320 320 318 316 317 319 317 314 313 312 313 315 315 316 316 315 313
318 319 320 321 320 320 322 320 317 317 316 315 315 315 314 314 315 317 316 318 320 321 323 322 317 316 317 317 316 316 316 317 317 317 317 317 317 317 318 318 318 318 319 319 318 318 317 317 317 317 317 317 317 317 317 317 317 317 317 317 317 317 317 316 315 314 314 313 313 312 311 310 309 308 307 306 309 314 318 318 319 318 316 316 318 318 316 314 313 313 314 315 315 316 315 314 312
316 316 317 318 318 319 320 319 318 318 317 316 316 316 315 314 317 319 317 319 322 321 321 319 316 315 315 315 316 316 316 315 315 316 317 317 317 317 317 318 318 318 318 319 319 317 317 317 317 317 317 317 317 317 317 317 317 317 317 317 317 317 317 316 315 315 314 314 313 312 311 310 309 308 306 305 309 314 317 318 317 314 313 316 317 317 316 315 313 313 314 315 315 315 315 313 312
Wind_Speed
2 1 2 2 1 2 4 4 4 3 3 1 5 4 3 4 4 4 5 3 3 7 9 8 7 8 5 3 5 12 13 8 3 2 4 11 17 16 14 15 14 14 14 14 12 11 12 14 14 12 10 9 10 10 10 10 9 7 6 5 5 5 6 7 9 11 11 11 11 11 11 11 12 11 10 10 10 12 12 13 15 15 16 18 16 13 12 13 13 13 13 14 15 16 16 16 17
2 1 2 3 2 3 5 5 2 3 3 3 4 4 4 3 3 5 6 5 5 6 7 8 6 5 4 3 4 8 13 12 9 11 14 18 18 14 14 15 15 15 14 13 12 11 12 13 13 11 11 10 10 10 9 8 7 6 5 5 4 5 6 8 9 11 11 11 11 11 11 12 12 11 11 11 11 12 12 14 14 15 18 17 15 12 13 14 14 14 15 16 17 17 18 18 18
1 2 3 2 4 6 7 3 3 4 2 4 4 3 5 4 5 8 9 9 9 8 6 5 4 4 4 4 5 6 8 10 13 19 20 19 17 15 14 15 15 14 13 13 12 11 11 12 12 11 10 10 10 10 8 7 6 5 4 4 4 6 7 8 10 11 11 11 11 11 11 11 12 12 11 11 11 11 12 14 14 17 19 16 14 13 13 14 15 16 17 18 18 18 18 18 19
1 3 2 0 5 6 5 2 3 4 3 3 3 2 4 7 8 9 10 11 9 7 6 3 4 3 4 5 7 6 9 10 12 18 20 15 14 16 16 15 14 14 13 12 12 11 11 12 12 11 10 9 9 9 9 7 6 5 4 3 5 6 7 9 10 10 11 11 11 10 10 11 11 11 11 11 11 11 12 14 14 16 16 13 13 12 13 14 15 17 18 18 18 18 19 19 20
2 2 1 2 3 4 2 2 2 3 4 2 4 3 5 9 8 8 10 10 8 7 6 3 3 3 3 6 6 5 9 10 11 13 17 13 14 17 16 17 14 14 14 12 12 11 11 12 11 11 10 10 9 9 9 8 6 5 3 4 5 6 8 10 10 11 11 10 10 10 10 10 11 11 11 10 10 10 12 14 13 14 14 13 13 14 15 15 15 18 19 19 19 19 19 20 20
3 1 2 2 5 5 3 2 1 5 4 4 4 3 7 9 10 11 11 11 8 6 6 4 2 2 5 6 6 7 7 8 11 11 15 15 15 18 17 17 14 13 14 12 12 11 12 12 11 11 10 10 10 9 9 8 7 5 4 4 6 7 8 9 10 10 10 10 9 9 10 10 10 10 10 10 10 10 12 13 13 14 14 13 14 15 16 15 17 19 19 19 19 19 20 20 20
3 0 2 3 5 4 3 2 3 5 3 5 4 4 7 10 12 12 10 8 5 5 5 4 2 1 4 6 5 7 8 9 13 12 14 17 17 19 19 17 14 13 13 12 12 12 12 12 13 12 10 10 10 9 9 9 8 6 5 6 7 7 8 9 9 9 10 10 8 9 9 10 10 9 9 9 10 11 12 13 13 14 14 14 15 14 14 15 18 19 19 19 18 19 19 19 20
3 2 2 2 2 3 3 1 5 4 2 4 6 5 9 11 12 10 6 6 3 4 4 2 0 1 3 6 5 5 9 11 14 16 15 18 19 19 18 16 13 13 12 12 12 12 13 13 13 12 11 11 10 10 9 9 9 7 6 6 7 8 8 8 7 8 9 9 8 9 9 9 9 9 9 8 9 11 12 12 13 13 14 14 14 13 15 16 18 19 18 18 18 18 19 19 19
2 3 3 2 2 3 2 3 5 3 4 4 5 7 11 10 9 9 5 6 5 6 6 4 0 0 4 8 8 5 10 11 13 16 13 16 21 19 17 15 14 13 11 11 11 12 13 13 12 12 12 12 11 10 10 10 9 8 7 7 8 9 8 7 6 6 8 8 8 9 9 9 9 9 9 8 9 9 10 12 13 13 13 13 13 14 15 17 17 18 18 17 17 18 18 19 19
3 5 3 1 2 3 1 4 4 3 5 5 6 7 9 8 6 7 6 7 6 6 7 5 2 1 2 9 10 4 7 9 11 15 13 16 22 19 16 15 13 13 12 11 11 12 13 13 12 12 12 12 11 10 10 10 10 9 8 7 8 9 8 6 4 5 6 7 8 9 10 9 9 9 8 8 8 9 9 10 12 13 13 13 14 15 15 16 17 17 17 18 17 18 18 18 18
4 6 2 2 4 2 1 4 5 4 5 5 7 8 7 7 5 4 5 7 6 6 7 5 3 1 2 9 10 5 5 6 10 14 14 18 22 19 17 15 13 12 11 12 10 11 13 13 13 12 12 12 11 11 11 10 10 10 9 8 8 9 7 6 4 5 5 6 8 8 9 9 9 9 9 8 8 8 9 10 11 12 12 13 14 14 14 16 17 17 18 18 17 17 17 17 17
3 4 2 2 4 2 3 3 5 5 5 4 5 7 8 7 5 4 3 5 6 6 6 5 2 2 3 6 8 8 6 7 11 14 14 19 22 19 16 15 14 12 11 11 10 11 13 13 13 12 11 11 11 11 11 11 10 10 9 8 8 8 7 6 5 4 4 5 7 7 8 9 9 9 9 8 8 8 9 10 11 11 12 13 13 14 15 16 17 18 18 18 17 17 17 16 16
3 3 2 2 3 3 3 2 3 4 4 4 6 9 9 8 5 5 4 4 5 5 6 6 2 1 2 8 9 10 8 10 12 14 15 18 21 19 15 12 14 13 12 11 11 12 12 13 13 12 11 11 11 11 11 11 10 10 10 8 8 8 8 6 5 4 4 5 5 6 7 8 9 9 9 9 9 9 9 10 11 11 12 13 14 15 16 16 16 17 18 18 17 16 15 15 15
4 5 2 1 1 2 2 1 1 1 1 4 10 12 10 8 6 4 5 4 3 4 8 7 2 2 3 8 9 11 13 14 13 15 16 16 19 20 15 12 14 14 13 12 12 12 12 13 13 12 12 11 10 11 10 10 11 11 10 9 8 8 8 7 5 4 4 5 4 5 5 6 7 8 9 9 9 9 10 11 11 12 13 13 14 15 15 15 16 16 16 16 15 14 14 14 14
3 5 2 2 2 0 1 1 1 2 2 4 10 15 11 6 5 3 1 2 5 6 8 5 4 1 1 3 8 13 16 15 14 14 16 15 18 19 16 14 15 15 14 12 13 13 12 12 13 13 13 12 11 11 10 10 10 10 10 9 8 8 8 8 7 5 4 3 3 3 4 5 6 7 8 9 9 9 10 10 11 12 12 12 13 13 14 14 14 14 14 14 13 13 12 12 13
4 2 1 2 2 1 1 1 2 2 2 5 10 14 10 5 6 4 0 3 5 4 4 2 3 2 2 6 11 14 14 14 13 15 17 17 18 19 17 17 17 17 16 13 15 14 13 13 14 14 14 13 12 11 11 11 11 10 10 10 9 9 8 8 8 6 5 3 2 2 3 3 4 5 6 7 8 9 9 9 10 10 10 11 11 12 12 13 12 12 12 12 12 12 12 12 13
4 1 0 1 3 1 2 2 3 4 3 6 11 13 8 5 7 4 3 3 2 3 3 3 4 5 3 6 12 13 11 12 14 16 19 18 19 20 18 19 19 19 19 16 16 16 15 15 15 15 14 14 14 13 12 12 12 11 11 11 10 10 9 9 8 7 6 4 3 2 2 2 2 4 5 6 7 7 7 7 7 8 9 10 10 10 11 11 10 10 11 11 11 11 11 11 12
3 1 1 3 4 1 1 3 4 5 6 6 11 13 8 6 8 6 4 4 5 3 4 6 5 6 6 5 9 10 9 11 15 18 19 20 20 22 20 21 21 21 22 20 20 19 18 17 16 15 14 14 14 13 13 13 12 11 11 12 11 11 10 10 8 8 7 6 4 3 2 3 3 3 4 5 5 6 6 6 6 7 8 8 9 9 9 9 9 9 9 9 9 9 9 10 11
2 1 2 4 1 3 6 8 8 5 6 9 11 11 8 7 10 9 4 6 9 5 5 9 7 8 9 9 9 8 8 11 16 18 19 20 21 23 22 22 23 23 24 24 23 22 20 19 18 16 15 15 15 14 14 13 12 12 13 13 13 11 11 11 10 9 8 7 6 4 3 4 4 3 4 5 4 5 6 6 6 6 7 7 7 8 8 8 8 8 7 7 7 7 7 8 9
2 1 2 3 1 6 11 13 10 7 5 9 11 9 6 7 10 9 5 6 10 9 9 11 12 12 13 13 12 9 9 12 16 18 18 19 21 22 23 21 22 23 25 27 26 24 23 22 21 18 16 16 16 16 15 14 13 13 14 14 14 13 12 12 11 10 10 9 8 6 5 6 4 3 4 5 5 5 6 7 7 7 8 7 7 7 8 8 7 6 6 5 5 5 5 5 6
2 1 1 3 5 5 9 11 9 6 5 6 10 7 4 6 7 7 6 4 6 9 11 14 15 17 16 15 15 12 10 11 15 18 18 19 20 21 22 21 21 21 22 26 28 26 25 24 23 21 19 18 18 17 17 16 14 14 15 15 14 14 14 13 13 12 11 10 10 8 8 8 6 4 5 5 5 6 6 8 8 8 8 8 7 7 7 8 7 6 5 4 3 3 2 3 4
2 2 4 5 6 5 5 5 7 7 5 7 10 5 3 8 6 7 7 5 3 3 4 9 12 16 18 16 15 14 13 12 14 16 18 19 20 21 21 21 21 21 21 23 25 26 26 26 25 24 22 21 21 20 19 18 16 16 15 15 15 15 14 14 14 13 13 12 12 11 11 11 9 7 7 7 6 7 7 8 9 9 8 8 7 7 7 7 7 6 4 3 2 1 1 3 3
2 1 6 7 6 5 3 2 5 5 4 5 5 3 4 6 4 8 12 11 6 2 1 2 3 7 12 12 12 13 14 14 14 15 16 18 19 21 21 21 21 22 22 22 22 23 25 26 26 26 26 25 24 23 22 22 20 18 16 16 16 16 16 15 15 15 15 14 14 14 13 13 11 10 10 9 9 8 8 9 9 9 9 8 8 7 6 6 6 4 3 1 1 1 2 4 4
3 0 4 5 6 6 2 2 4 4 3 2 2 2 2 3 3 5 11 16 13 9 10 7 2 3 7 9 9 10 12 13 14 14 15 16 18 20 21 22 22 22 23 22 21 22 22 25 27 26 28 28 27 26 26 25 23 20 18 18 18 18 18 17 16 16 16 16 16 16 16 15 14 13 12 11 11 11 11 10 10 10 11 10 9 8 6 5 4 2 1 1 2 1 1 2 4
4 1 6 4 6 5 3 3 3 3 1 1 1 1 4 5 3 4 11 16 15 14 15 14 9 7 8 9 9 9 11 12 13 15 15 16 18 20 22 23 23 24 24 24 23 22 21 23 26 26 27 28 28 27 28 27 27 25 21 19 20 20 20 19 17 17 18 18 18 18 19 18 17 16 14 13 12 12 12 13 12 12 12 12 10 9 7 5 4 5 4 4 4 3 2 2 4
2 5 8 6 6 5 4 5 3 3 1 1 1 4 5 5 4 7 14 19 18 15 15 17 15 12 12 12 13 13 12 13 13 15 15 16 18 21 23 23 25 26 26 25 25 24 22 22 23 26 27 27 27 27 27 28 28 29 26 22 22 21 21 21 20 19 18 19 20 21 20 20 20 18 16 15 14 13 14 14 14 15 15 14 13 11 9 7 6 7 7 7 7 5 3 3 4
4 8 9 8 7 5 4 4 4 4 2 1 1 4 4 4 1 5 8 10 14 16 15 17 17 16 16 16 16 17 16 16 15 15 16 17 19 21 22 24 26 27 27 27 26 26 25 24 23 24 25 26 26 25 26 26 26 29 30 28 26 24 23 22 22 22 21 21 21 22 22 23 22 20 18 17 17 15 16 16 15 17 17 16 15 13 12 11 9 9 9 8 7 6 4 4 4
6 9 8 7 6 5 4 4 5 4 2 2 1 6 5 3 3 11 12 6 9 16 16 16 18 18 18 18 18 19 19 19 18 18 20 20 20 20 21 23 24 26 27 27 27 27 27 27 26 24 24 24 24 25 24 24 25 25 28 31 31 29 25 24 24 24 24 24 22 22 23 25 25 23 22 20 19 18 18 18 17 18 19 19 18 16 16 14 12 11 10 8 6 6 5 4 3
6 7 4 5 5 4 7 6 6 5 2 2 1 4 7 5 9 24 20 13 10 12 13 13 15 15 14 16 18 19 20 20 21 23 23 23 22 21 21 21 22 25 27 27 26 27 27 28 28 26 25 24 25 25 24 24 25 26 26 28 30 32 29 27 28 27 25 25 24 23 23 25 26 26 25 24 22 21 20 20 20 20 21 21 20 19 19 17 15 14 11 9 6 6 6 4 3
5 4 1 4 3 3 9 9 6 5 3 3 2 2 6 5 15 25 17 16 15 12 12 13 13 13 12 13 16 19 21 21 23 23 23 23 24 24 24 22 22 24 26 27 28 27 27 27 27 26 26 27 27 26 27 26 27 28 28 28 27 29 30 30 31 30 28 26 25 25 24 24 25 26 27 26 25 23 22 22 22 22 21 21 20 20 21 19 18 16 13 10 7 7 7 5 3
3 2 1 2 2 2 6 8 8 5 3 6 3 1 7 6 7 12 13 15 16 14 14 14 14 15 14 14 16 19 21 21 23 23 23 22 22 24 24 24 24 24 26 28 28 27 27 27 26 27 27 27 28 28 28 28 28 27 27 29 28 27 29 31 32 32 31 29 26 27 26 25 25 26 26 26 26 25 24 23 23 22 22 21 20 21 23 21 20 18 15 11 9 8 7 6 3
2 3 2 3 2 1 2 3 6 4 2 7 5 1 8 8 1 9 13 13 12 12 13 13 15 15 15 15 16 18 20 21 21 23 24 23 23 23 24 24 25 25 26 27 27 27 28 27 27 27 27 27 28 28 29 29 29 29 28 28 28 27 27 29 31 32 33 31 29 29 29 28 27 26 26 26 25 26 26 25 24 23 23 22 21 22 24 24 22 21 18 14 11 9 7 7 5
2 2 3 3 3 4 2 1 1 3 3 6 5 3 4 4 4 9 10 10 11 11 11 12 13 13 13 14 16 19 20 20 20 21 22 22 22 23 23 24 25 25 26 26 27 28 28 28 28 28 28 27 27 27 29 30 29 29 30 28 27 28 29 29 29 30 32 32 32 32 30 30 29 28 28 27 26 27 27 27 25 24 25 24 23 23 25 26 25 23 21 17 15 12 9 9 9
3 2 3 3 3 4 2 1 1 3 1 3 5 5 6 6 6 6 7 8 11 12 13 13 14 15 15 15 17 18 20 20 22 22 21 21 21 21 22 23 24 24 24 25 26 27 27 28 29 29 29 28 28 28 29 29 29 29 30 29 29 29 30 30 29 29 31 32 33 34 33 32 31 31 30 29 29 28 29 28 26 25 26 27 26 24 25 28 28 26 23 19 18 16 13 12 12
4 5 4 3 2 3 2 2 2 3 1 3 4 6 8 10 12 14 14 13 14 16 17 18 19 20 20 20 20 20 21 22 23 23 22 22 21 20 20 22 23 23 22 23 23 25 27 28 29 29 29 29 29 30 29 29 29 30 31 31 31 31 31 31 31 31 31 32 32 33 34 34 34 33 31 30 30 29 30 30 28 26 27 28 27 26 25 29 31 28 24 22 22 20 16 14 14
1 2 3 3 2 2 1 4 0 1 1 4 6 7 9 9 11 14 17 17 18 19 20 20 21 23 23 23 24 24 25 26 26 24 23 24 24 22 20 21 22 21 20 20 20 22 25 28 30 30 31 31 31 32 31 31 31 32 32 33 33 33 33 34 34 34 32 31 31 32 34 34 35 35 32 31 31 31 31 32 30 28 28 29 28 28 27 28 32 30 26 26 27 25 20 17 17
4 3 2 1 1 1 3 3 2 3 1 5 7 8 10 10 10 11 17 18 16 17 19 21 22 23 25 25 27 29 29 30 28 26 26 26 26 25 23 21 22 23 22 22 22 22 23 26 30 31 31 32 33 34 34 33 33 32 33 33 34 34 34 35 36 36 34 32 32 32 33 33 34 35 33 33 33 34 34 34 33 30 32 32 30 30 28 27 31 33 31 30 30 29 25 22 21
4 4 4 4 2 0 4 3 1 1 2 4 6 8 10 9 9 12 16 14 15 19 20 22 25 25 26 27 29 30 29 28 26 25 26 27 27 27 26 26 26 27 27 27 27 25 24 26 28 30 31 32 34 35 35 35 33 32 31 32 32 34 35 36 36 36 34 33 33 33 32 33 34 35 35 34 36 38 38 36 34 31 33 32 29 31 30 28 33 37 37 34 34 32 27 24 23
3 2 2 3 2 1 4 3 0 1 0 4 5 7 10 10 9 13 17 17 20 25 26 26 27 26 26 28 30 29 26 25 24 24 25 26 28 28 28 29 30 31 31 31 31 28 27 28 28 28 30 31 33 34 35 35 34 33 32 31 32 33 35 36 35 35 34 34 34 34 33 33 35 36 35 35 37 39 38 36 34 33 33 32 31 33 31 29 33 39 40 38 37 35 30 27 24
1 1 1 2 1 1 1 1 1 2 2 3 5 7 10 10 9 13 22 28 26 26 27 27 26 25 27 29 29 26 23 23 22 23 24 25 26 27 28 28 29 31 32 33 33 31 30 30 29 29 29 30 32 34 35 35 35 35 34 33 33 33 34 35 34 35 35 35 35 34 33 34 36 37 37 38 38 39 37 34 33 34 34 33 33 35 34 32 33 38 41 42 40 38 34 30 26
4 5 4 4 2 2 2 2 2 4 1 3 4 6 7 6 5 7 13 19 20 20 22 24 24 25 28 30 30 27 24 24 22 21 22 24 25 25 24 24 25 26 27 28 30 30 30 30 30 31 30 31 32 33 35 36 37 37 37 36 35 35 35 36 36 36 37 36 35 34 33 34 37 39 38 39 40 39 38 35 34 35 34 34 35 36 36 34 34 37 41 44 43 39 35 31 28
3 5 4 4 4 1 4 4 3 2 2 2 2 3 5 4 4 7 8 6 9 13 16 18 21 24 27 30 30 28 26 25 24 22 22 23 24 23 23 23 23 23 21 20 21 24 27 29 30 31 32 33 33 34 35 36 37 38 38 38 38 37 37 37 37 37 37 37 35 34 33 33 37 39 39 39 40 39 39 37 36 36 35 34 35 34 33 32 33 35 39 43 43 40 36 32 29
3 3 3 3 3 3 3 2 1 0 3 3 2 2 4 8 8 8 6 6 7 8 10 14 19 22 25 28 27 24 23 22 22 21 21 23 24 24 24 25 23 22 20 18 18 20 22 25 28 30 32 33 34 35 36 37 37 38 38 39 38 38 37 37 36 36 36 36 35 33 32 32 35 38 39 39 40 40 40 39 37 37 36 34 32 32 31 31 32 34 36 39 41 40 38 34 31
2 3 5 4 2 3 2 1 2 2 2 2 2 4 2 8 9 4 2 6 8 8 8 10 17 24 25 24 21 18 16 15 15 15 16 19 22 23 22 21 19 18 18 19 20 19 19 21 24 27 30 32 34 35 36 37 37 37 38 38 39 39 38 38 37 36 35 35 35 34 33 33 35 37 39 40 40 40 40 39 38 38 37 35 34 34 33 32 32 34 36 37 41 43 41 36 33
2 3 2 2 3 4 3 1 2 1 3 3 3 3 2 5 10 6 1 5 9 9 10 10 16 24 24 19 15 13 12 13 13 12 11 13 15 16 15 13 12 12 13 15 17 19 19 20 21 24 26 29 32 33 34 35 35 36 37 38 38 39 39 38 37 37 36 34 34 34 33 34 35 36 38 40 41 41 40 40 39 38 38 38 37 35 33 32 32 34 36 39 45 47 44 38 35
3 4 1 4 3 3 2 1 0 2 1 4 5 5 3 4 8 8 3 4 7 8 8 6 6 9 11 12 12 12 12 12 12 10 8 8 8 8 8 5 5 6 8 10 12 15 17 19 21 22 24 26 28 30 32 33 34 35 36 37 38 38 38 38 37 37 37 35 34 35 35 35 35 36 37 39 41 41 41 41 39 38 39 39 38 35 32 32 33 33 34 39 46 48 44 40 38
5 4 3 3 2 3 2 1 3 1 3 4 7 10 6 4 5 7 4 4 5 4 4 0 4 5 6 9 10 10 10 9 10 9 7 6 6 6 5 4 3 3 4 6 8 11 13 16 18 20 22 24 25 27 29 30 32 33 34 35 36 36 37 37 37 37 37 36 34 35 36 36 36 36 37 38 40 41 41 40 39 39 40 40 37 34 33 33 33 32 29 32 39 43 43 42 41
3 2 3 2 1 3 2 1 3 1 4 2 3 4 5 6 6 5 5 3 3 2 1 3 6 5 5 6 7 7 8 9 10 10 8 8 8 8 6 3 2 4 6 8 10 11 13 15 16 18 19 21 22 24 25 27 29 30 32 33 33 34 34 35 35 35 35 36 35 34 35 37 37 37 38 38 39 40 40 40 41 42 42 40 37 35 35 34 33 31 28 28 31 35 39 43 44
0 1 4 3 1 1 1 1 1 3 5 2 3 3 2 7 6 5 8 8 6 5 4 3 5 7 6 4 4 6 8 10 11 11 10 9 9 9 7 5 6 8 10 12 14 15 16 16 16 17 18 18 19 20 22 23 24 26 27 29 30 31 32 33 34 34 34 35 35 35 35 36 37 38 39 39 40 40 40 41 42 42 40 38 36 37 37 35 33 30 29 29 31 33 35 39 43
4 4 5 4 3 2 4 4 2 3 3 3 4 2 3 5 3 7 10 13 14 10 5 4 2 4 5 4 5 8 10 12 13 13 11 11 11 11 10 8 9 11 12 14 15 16 15 15 15 15 16 16 17 18 19 20 20 21 22 24 26 27 29 30 32 33 34 34 36 36 35 35 36 37 38 38 39 39 40 40 40 40 39 38 38 38 36 33 32 30 29 29 31 34 35 38 42
7 5 5 5 5 4 4 3 3 3 1 3 4 1 3 2 2 5 4 6 12 11 8 8 10 11 9 7 7 11 14 15 15 14 13 13 13 14 15 13 13 13 13 15 15 15 14 13 12 12 12 13 14 14 15 16 17 17 19 21 22 24 25 27 29 31 32 34 36 36 35 35 35 35 36 36 37 38 40 41 41 41 40 38 38 37 33 31 30 29 29 30 32 35 38 40 43
5 3 3 5 4 2 1 2 3 2 1 2 2 3 5 3 6 8 7 10 11 12 12 12 13 12 9 10 13 16 18 17 17 17 16 16 17 19 21 22 19 15 15 15 14 12 11 10 9 8 8 9 10 11 12 13 14 15 17 18 20 21 22 24 27 30 31 33 35 36 35 35 35 34 34 36 36 36 38 41 42 40 38 38 38 34 32 33 33 31 31 32 34 37 39 40 42
3 3 4 4 1 2 2 2 1 4 2 4 3 6 6 3 8 10 11 14 13 11 11 11 12 12 13 17 20 20 19 16 15 17 17 19 20 21 22 21 19 16 15 14 12 11 9 8 7 6 5 6 7 8 10 11 12 14 15 16 18 19 20 22 24 26 28 30 33 35 34 34 34 33 33 36 36 35 36 37 38 38 38 39 37 35 37 36 33 31 32 33 36 39 38 38 41
4 4 4 1 3 2 2 1 2 1 5 4 3 8 8 3 6 5 3 8 8 7 9 11 15 15 15 18 19 18 14 12 13 15 16 19 20 19 16 15 15 15 14 13 11 10 9 7 6 6 5 6 6 8 9 11 13 14 15 15 16 18 19 20 22 23 25 27 29 32 33 33 33 33 32 34 35 35 35 36 36 38 38 37 36 37 38 34 30 31 33 34 37 40 40 40 42
4 2 1 2 1 1 2 2 2 3 4 4 5 8 7 7 7 4 4 6 7 7 8 9 10 10 10 12 13 14 13 12 14 15 16 16 16 14 13 13 14 14 14 13 12 11 9 8 8 7 6 6 7 9 11 13 14 16 16 17 17 18 19 19 21 22 23 24 26 28 30 31 31 32 32 33 34 33 33 35 37 37 36 35 37 38 34 31 30 31 32 35 38 40 41 42 43
4 4 3 2 2 3 3 3 2 3 4 5 7 6 6 8 5 3 7 8 7 7 6 5 3 2 4 7 11 15 15 14 14 15 16 14 12 13 14 14 14 14 14 14 14 12 10 10 8 7 6 7 9 10 11 13 14 16 18 18 18 18 19 20 21 22 23 23 24 25 27 28 29 30 31 32 33 33 33 36 37 36 36 37 38 36 32 29 29 30 32 34 37 38 40 42 43
1 1 2 2 1 1 0 2 2 3 3 4 5 7 8 7 2 4 6 3 2 4 5 5 6 9 12 15 19 18 15 15 17 19 18 16 14 15 15 16 15 16 17 16 16 14 12 11 9 8 8 9 10 11 13 14 14 16 18 18 19 19 20 21 22 22 23 22 23 24 25 26 27 28 30 32 33 34 35 36 37 37 38 39 37 34 32 30 29 30 32 33 35 37 38 39 40
8 6 7 7 5 3 1 4 3 3 3 4 4 6 11 6 4 3 3 7 6 7 7 5 10 14 17 18 18 15 13 18 23 24 21 17 17 17 18 20 19 19 20 19 18 16 14 12 10 10 11 11 12 13 15 16 16 17 18 18 18 19 20 23 24 24 23 22 24 24 25 26 27 29 30 32 33 35 36 37 37 38 39 38 33 32 32 31 30 30 30 31 34 36 36 35 37
Wind_Direction
211 311 29 47 348 327 276 245 276 245 210 112 98 99 76 81 118 123 107 119 105 59 54 67 45 31 45 21 68 76 52 42 60 51 125 141 146 142 152 167 160 161 155 144 146 138 138 139 139 137 136 139 134 129 128 128 119 114 107 89 66 64 61 53 49 46 57 68 73 73 72 71 72 77 84 91 93 93 95 92 91 93 97 99 95 95 102 106 104 102 100 99 99 100 101 99 99
204 332 69 54 319 286 266 204 221 268 185 96 71 85 103 125 124 92 84 78 72 79 75 69 61 54 43 23 68 72 53 56 84 104 126 140 143 147 159 160 156 163 156 151 154 143 140 138 140 143 143 144 142 140 135 132 125 127 111 82 73 73 70 65 57 54 61 68 72 74 75 75 76 78 85 92 94 94 95 93 94 95 96 101 101 97 100 104 102 102 101 99 100 101 102 101 101
174 13 69 43 289 257 272 222 223 288 119 96 70 102 129 113 81 71 71 74 80 91 86 74 78 54 351 354 38 62 73 73 95 112 126 137 143 149 154 152 154 158 156 157 156 151 146 140 144 145 146 147 150 154 149 143 139 137 111 79 81 80 77 74 65 62 66 69 72 74 76 76 78 80 84 91 95 96 95 94 95 97 98 104 105 99 102 104 104 106 105 102 102 102 102 101 102
131 25 61 248 284 259 262 239 247 328 38 87 85 119 122 94 85 80 80 82 87 86 75 82 86 56 355 8 25 66 97 93 105 121 129 140 154 151 150 151 152 155 155 161 160 157 151 145 148 148 146 146 152 160 160 157 151 143 113 81 89 86 82 79 71 69 69 71 73 76 77 76 77 78 81 86 93 95 93 95 97 101 105 110 110 106 105 103 105 108 107 104 103 102 102 101 101
108 37 21 195 259 274 272 270 289 38 23 32 98 117 102 94 99 95 90 86 84 79 73 83 82 80 61 35 20 71 100 104 115 132 134 150 171 152 150 152 150 156 156 165 165 162 158 153 151 150 147 142 144 152 157 156 153 145 113 82 90 92 90 85 77 74 72 72 75 79 80 78 77 75 78 81 88 94 92 95 98 101 103 107 108 104 101 100 103 106 105 104 103 102 102 101 101
116 47 322 254 260 289 301 269 45 83 10 5 96 99 86 96 107 105 100 91 78 83 85 65 42 60 87 74 66 99 116 118 121 144 146 154 165 153 155 152 148 155 159 170 167 166 165 158 156 154 150 141 138 141 147 149 150 145 115 93 97 99 97 92 82 76 73 75 78 83 84 82 81 78 79 80 84 92 93 94 96 96 97 101 104 102 102 103 103 104 104 103 102 102 102 103 103
113 281 260 275 270 266 266 266 59 80 358 7 72 89 88 99 113 117 115 105 85 99 96 64 44 358 102 113 98 112 135 140 140 157 164 165 163 158 157 147 148 154 160 175 166 167 167 162 160 157 152 141 138 138 141 146 147 143 119 103 104 105 99 95 86 76 72 75 79 84 87 85 84 82 83 82 84 92 94 97 100 99 100 101 102 106 109 107 106 106 104 104 104 104 104 105 104
127 265 250 274 279 223 256 28 56 67 52 36 47 62 96 113 122 128 128 121 122 124 128 112 51 320 108 111 99 135 157 164 169 170 173 177 169 158 151 143 153 156 162 176 166 167 167 165 162 157 155 147 144 139 142 146 145 141 121 108 106 108 103 97 88 78 75 76 80 86 89 87 87 87 88 87 89 94 96 100 104 103 104 104 105 110 112 109 109 108 107 107 106 106 106 105 102
160 287 288 260 269 236 249 88 82 75 103 93 67 71 100 124 131 129 122 112 129 129 133 148 142 347 108 99 97 143 177 186 193 183 179 180 169 154 145 146 157 160 169 177 169 172 169 166 166 162 158 153 150 144 147 147 144 141 122 113 108 109 110 108 100 84 81 81 83 86 87 86 87 89 92 94 94 98 99 101 103 105 110 113 114 113 113 113 111 110 110 110 108 107 105 104 101
253 260 282 303 265 247 225 90 90 83 90 89 97 103 109 130 136 134 133 112 126 119 113 140 136 292 128 110 116 156 196 196 201 194 186 174 167 154 144 148 161 169 176 181 175 176 175 170 170 170 163 157 153 150 154 151 147 141 128 122 113 114 118 119 111 87 87 87 86 85 83 82 84 87 91 97 100 102 101 102 105 108 113 116 117 116 116 116 114 113 112 109 107 104 102 101 99
248 232 246 322 268 259 43 87 103 101 98 92 103 119 123 136 137 128 125 104 115 114 118 165 157 214 187 113 126 178 207 191 197 195 182 170 169 158 147 152 166 179 184 187 185 180 182 177 176 178 170 162 157 155 159 157 154 145 137 135 123 123 126 128 115 88 89 90 90 86 79 77 78 82 85 93 100 102 100 102 106 108 110 112 115 117 117 116 114 112 108 105 102 99 98 97 97
233 228 185 277 279 34 32 56 96 105 120 139 119 131 139 138 141 136 130 108 130 139 143 179 158 184 187 107 138 182 187 183 191 191 179 170 172 164 153 159 165 180 196 193 193 188 188 186 180 181 178 171 164 163 164 162 160 153 148 145 136 133 134 137 124 97 91 90 91 87 79 75 75 78 81 87 93 97 99 101 105 107 109 110 111 111 109 110 110 107 104 99 96 93 93 93 95
237 274 189 233 287 42 17 20 97 131 147 161 137 143 147 144 164 162 159 137 142 156 148 151 143 231 139 103 140 173 173 185 190 187 183 174 176 169 158 165 164 179 203 199 199 194 192 194 187 184 185 183 175 171 169 168 167 161 160 158 150 144 143 147 137 118 101 94 93 90 83 77 76 79 81 86 90 94 99 102 105 106 107 107 106 105 104 105 104 102 98 94 91 89 89 91 94
245 318 320 247 288 36 13 37 121 157 121 123 128 145 152 155 182 169 158 147 117 122 131 149 199 232 131 114 147 170 169 189 197 187 187 180 178 170 159 174 171 181 205 201 204 202 195 200 197 191 190 191 188 181 176 176 176 169 168 169 165 158 155 159 157 140 117 104 100 98 91 84 81 81 85 90 93 96 101 105 108 109 108 107 107 105 105 104 101 98 94 90 88 87 88 90 95
216 339 325 311 315 41 59 110 50 37 73 103 129 148 151 154 169 142 152 100 89 117 128 169 230 202 67 103 158 179 180 195 200 186 188 186 181 168 164 184 179 184 201 201 206 205 200 203 202 197 196 198 195 191 188 186 185 179 177 178 176 175 171 174 175 161 142 123 112 107 100 95 89 85 87 94 98 99 104 109 112 113 112 111 110 110 110 108 104 99 94 92 89 88 89 93 99
183 350 299 309 295 225 152 157 76 54 100 129 144 151 146 150 157 143 192 82 95 144 143 172 209 165 68 97 146 183 194 199 194 184 188 189 184 171 174 191 187 189 195 199 207 206 205 207 206 201 199 204 201 198 199 196 193 189 187 187 186 189 191 190 185 176 174 166 140 123 112 108 106 101 95 99 107 106 106 113 117 117 118 117 118 119 118 115 111 105 100 97 94 92 92 97 105
173 354 325 262 244 199 167 165 119 137 124 132 156 158 147 147 164 184 206 173 151 170 162 178 199 196 195 132 158 186 201 200 189 186 190 194 188 177 185 197 194 196 194 197 204 205 206 205 206 205 202 205 204 203 206 203 199 197 198 198 196 198 203 204 197 188 188 190 181 165 157 152 130 122 114 112 118 118 117 119 123 125 124 125 125 126 127 123 119 112 106 102 97 96 96 102 111
157 120 196 244 233 249 149 94 73 135 137 146 164 168 166 151 169 192 197 204 214 199 183 202 213 211 221 192 184 198 208 202 189 191 197 199 194 186 194 200 200 201 198 199 203 203 205 204 204 204 206 206 204 206 210 208 204 204 206 207 206 205 208 213 211 204 203 204 204 206 211 206 186 165 142 129 133 136 137 135 136 138 136 135 135 136 137 135 130 121 113 107 102 100 100 106 114
185 178 205 252 199 33 30 63 57 59 121 151 161 180 191 160 164 178 193 201 196 204 207 202 206 216 221 213 215 215 207 204 194 198 204 204 203 198 202 204 204 205 203 205 206 205 204 206 204 202 205 207 207 210 212 211 209 210 211 211 212 213 214 216 218 218 218 215 216 220 236 234 207 188 167 143 150 160 158 153 151 153 153 151 148 149 150 149 144 133 124 114 107 104 100 103 115
220 248 202 281 47 55 44 67 72 53 95 143 150 178 194 141 148 168 205 212 188 199 206 194 193 208 223 219 220 216 201 204 201 204 209 210 211 209 210 212 210 209 208 209 211 210 208 209 208 204 206 206 209 212 213 212 213 216 215 214 216 219 221 221 221 224 225 219 220 216 221 237 221 188 192 179 172 176 176 169 167 170 170 167 165 165 162 161 156 147 137 123 112 106 100 101 113
175 209 159 339 358 48 52 65 83 80 82 113 129 156 191 143 144 171 200 237 205 209 213 207 205 208 218 218 215 216 210 207 206 210 214 215 215 216 219 220 219 216 213 212 214 215 213 213 209 207 208 208 210 212 213 214 217 218 215 217 219 222 225 226 224 223 225 219 218 213 211 229 241 230 220 213 196 188 192 185 181 184 183 179 176 177 173 166 163 157 147 131 112 95 100 113 121
165 158 90 35 7 47 53 62 95 90 86 110 124 138 170 151 160 193 206 244 210 164 198 207 210 209 211 212 209 212 216 217 215 217 219 221 221 222 222 223 223 221 221 220 219 218 218 218 213 208 210 211 211 213 215 215 216 215 214 217 219 222 226 227 225 223 226 223 218 214 215 228 238 241 239 237 225 205 204 202 196 195 194 192 186 187 183 173 169 163 154 131 96 78 125 137 133
219 123 76 49 27 73 62 58 112 99 88 108 123 126 131 143 195 219 219 233 221 78 29 179 173 190 199 203 205 211 218 223 224 225 226 228 227 228 226 225 226 226 229 230 227 224 221 220 218 213 212 215 216 215 216 216 214 213 215 218 219 222 224 227 228 226 226 224 221 218 221 231 234 239 242 239 234 221 214 214 211 206 203 201 196 197 198 191 184 174 159 114 71 95 151 156 153
218 299 89 60 53 86 80 79 141 136 94 71 89 99 145 187 237 226 221 229 233 258 277 275 253 167 186 204 214 221 228 230 231 233 233 235 235 234 232 227 229 231 232 234 234 231 227 222 222 220 215 218 221 220 218 217 214 213 216 218 218 222 225 227 230 229 226 224 224 223 225 233 236 238 240 235 234 229 218 216 219 217 212 208 208 210 220 224 218 221 247 330 340 346 189 195 184
233 142 112 103 76 92 95 95 137 148 113 331 164 222 248 232 254 262 239 234 236 248 259 264 254 217 209 222 228 230 235 237 234 232 232 234 235 234 233 227 227 233 234 236 238 237 234 226 225 226 222 222 226 225 222 219 216 214 214 215 216 219 224 227 229 228 227 226 226 226 227 232 237 238 238 237 237 234 225 219 218 222 222 216 218 221 225 240 261 281 286 297 301 295 311 277 217
209 114 116 124 104 108 111 109 119 123 119 353 182 240 239 221 262 274 257 250 242 239 245 252 251 236 227 233 237 240 241 241 237 234 232 231 230 229 231 228 227 234 238 238 239 239 239 235 230 228 228 229 230 231 229 227 223 218 216 215 214 216 223 227 229 229 227 228 228 229 229 231 236 238 238 238 238 237 232 228 220 220 226 224 223 222 217 224 252 274 274 283 288 273 295 296 222
120 107 111 119 119 132 133 130 128 121 109 98 248 283 246 186 201 263 260 258 234 224 231 238 244 242 239 240 244 248 249 248 245 240 236 230 228 227 229 229 228 233 236 238 239 239 239 239 237 232 231 231 231 233 233 232 229 223 219 219 218 218 221 225 228 230 229 230 231 232 232 232 236 238 238 239 238 234 230 235 229 220 224 227 224 219 215 218 231 249 256 273 282 262 276 296 228
130 117 108 120 137 146 155 148 149 163 116 117 291 307 279 141 146 246 240 236 215 212 222 231 241 247 246 245 245 248 250 251 249 243 240 235 231 231 231 232 232 232 235 239 240 239 237 238 240 238 235 231 230 234 235 234 234 230 224 222 225 226 226 225 227 230 232 232 232 233 234 234 236 237 237 237 238 235 230 234 234 225 224 227 224 216 216 219 222 233 245 263 267 248 262 295 251
145 147 128 148 162 171 188 176 169 193 134 111 21 313 269 178 221 249 239 226 221 207 217 225 237 247 247 244 240 244 248 247 246 245 245 242 240 239 238 238 237 235 237 240 241 240 238 238 241 240 239 235 232 236 237 236 238 239 235 228 228 229 228 227 228 230 231 231 231 233 234 233 235 237 237 236 237 239 238 237 233 227 226 230 227 219 219 220 222 227 235 249 248 235 250 287 280
158 196 225 154 174 211 190 171 166 184 129 132 82 321 263 215 237 249 233 219 219 205 215 219 230 245 247 244 236 239 245 244 245 249 251 248 246 244 243 241 239 237 237 239 242 242 240 239 240 239 238 236 236 238 237 237 239 241 242 237 232 229 229 230 230 230 228 228 230 232 230 228 232 235 236 236 235 239 242 241 234 228 228 232 232 228 223 221 223 228 228 236 232 227 242 268 290
161 171 294 206 201 203 170 158 165 177 143 154 131 257 263 292 263 229 205 207 212 211 225 229 233 238 240 241 237 239 244 248 251 252 253 252 250 248 246 243 241 240 237 238 242 243 243 241 240 239 238 238 238 238 238 240 241 240 241 240 238 234 231 232 232 230 227 227 230 230 228 227 230 232 234 234 234 238 242 241 237 231 228 229 233 235 229 222 223 226 224 226 221 221 240 252 280
168 134 263 245 223 186 142 163 168 167 157 165 155 224 260 280 194 166 187 197 204 222 237 240 239 236 235 236 237 243 249 256 259 254 251 252 251 249 248 245 241 241 239 240 242 242 244 243 241 240 239 238 238 239 239 241 241 242 242 241 243 242 238 235 234 232 227 225 227 230 229 229 230 230 231 231 233 237 240 242 241 234 229 227 230 234 232 225 224 224 222 224 223 220 240 247 255
198 165 231 213 197 192 173 284 187 126 132 173 197 253 278 273 154 157 186 201 212 229 243 249 246 240 236 235 238 244 250 256 258 256 253 251 249 248 249 248 245 243 242 241 240 241 243 243 241 240 239 238 239 239 239 240 241 242 244 244 243 244 244 242 237 234 232 228 227 230 230 230 230 229 228 229 232 235 238 243 242 236 232 231 231 233 233 229 225 225 221 224 228 222 236 248 246
194 188 252 229 180 188 178 331 247 149 168 224 213 230 260 269 256 220 206 214 218 223 237 246 246 241 242 246 245 243 246 249 253 258 259 258 256 251 249 249 249 246 244 243 241 241 242 243 243 240 239 238 238 238 238 240 240 241 244 245 243 242 244 246 243 237 236 236 233 232 232 229 228 228 228 229 230 234 239 241 240 236 234 234 234 233 234 231 226 224 224 228 231 223 230 245 244
184 185 221 229 181 240 245 120 179 180 182 257 229 235 251 259 268 264 255 243 225 226 240 245 245 246 250 253 249 245 245 247 253 257 261 264 264 259 250 245 245 245 243 244 244 242 241 242 242 241 239 237 236 238 239 239 239 239 241 242 243 242 242 244 247 245 240 239 237 234 234 232 229 228 228 228 229 234 239 239 238 235 233 235 235 233 234 234 227 223 224 230 230 222 225 237 238
43 178 195 208 192 247 179 103 87 217 159 236 240 249 254 257 263 265 264 254 234 232 241 242 243 247 250 252 249 246 244 247 252 255 257 261 264 263 254 242 238 236 237 240 243 244 242 240 240 240 238 236 235 236 237 237 237 238 238 239 240 241 241 242 246 249 246 244 243 239 237 237 233 228 227 227 229 233 236 237 236 236 237 236 236 235 234 236 232 226 226 229 227 220 218 226 231
19 8 357 325 1 22 88 92 339 341 326 243 242 253 259 261 262 264 267 267 256 247 245 244 244 245 246 248 249 248 246 250 253 252 253 257 259 260 256 245 235 231 235 241 245 247 245 243 241 241 240 237 236 236 237 238 238 239 240 240 241 240 241 242 245 248 249 249 248 246 243 240 235 228 227 228 231 233 235 236 238 240 239 235 237 240 237 238 237 232 229 227 225 221 219 222 224
12 3 356 351 326 76 77 84 241 14 11 266 273 278 270 267 271 273 269 265 258 251 248 248 248 249 250 250 251 252 252 253 253 249 248 250 252 252 252 248 242 240 244 248 251 251 249 246 244 244 243 241 240 239 240 241 242 243 244 246 245 243 243 244 247 249 251 251 250 250 246 240 235 230 227 229 233 234 234 236 238 238 236 235 240 241 235 237 236 232 229 225 222 221 224 227 224
20 22 355 325 284 143 72 66 310 84 193 274 312 304 280 273 269 269 263 254 249 246 243 245 247 248 249 251 253 254 254 253 250 246 244 245 247 248 249 249 249 249 251 253 254 251 248 246 245 245 244 244 244 243 243 244 245 246 246 247 247 246 246 247 249 250 252 252 251 250 247 240 236 233 229 229 232 233 235 237 236 235 236 240 243 238 232 237 239 234 230 226 221 218 221 227 228
352 201 208 271 248 83 29 353 305 227 218 294 327 308 282 271 257 255 253 248 248 248 245 245 246 247 250 253 255 253 251 249 245 243 243 243 244 247 250 253 253 252 252 252 252 250 248 246 246 246 246 247 247 246 246 245 245 245 245 246 246 247 248 249 249 249 249 250 249 249 247 240 236 236 231 226 229 235 237 236 234 235 239 244 244 237 237 243 244 238 234 230 224 218 218 221 225
226 212 211 230 229 121 121 57 300 242 256 356 331 306 283 262 241 259 260 249 244 242 243 243 242 243 249 252 254 252 248 246 243 240 241 242 244 249 255 256 256 255 254 254 253 251 250 248 246 246 246 247 247 247 246 245 244 245 244 244 244 245 246 247 247 247 247 248 248 247 247 241 237 238 236 228 229 237 239 237 235 236 241 245 239 234 239 246 245 242 241 234 226 222 222 222 223
235 215 211 237 277 1 101 70 10 332 332 308 359 335 291 293 290 289 297 271 241 230 228 232 235 239 246 249 252 254 252 248 243 238 237 242 246 251 255 255 254 256 256 256 254 250 248 247 246 245 245 246 246 246 246 245 245 246 246 246 247 247 248 250 250 250 250 250 251 250 248 243 238 239 239 232 229 235 239 239 238 237 241 244 236 231 238 245 244 245 245 238 228 225 227 227 228
265 265 337 331 326 33 85 63 32 3 281 247 123 85 280 304 297 269 271 275 260 242 230 228 232 238 245 248 252 255 256 253 246 238 233 238 246 250 252 254 256 258 256 250 246 244 244 245 245 245 246 246 247 246 246 247 247 247 248 249 250 252 253 255 256 255 254 253 253 252 250 245 239 239 239 235 231 232 235 238 239 240 241 240 235 236 242 245 246 249 248 241 232 227 229 231 234
251 281 335 346 71 103 135 139 193 212 324 296 168 144 235 293 283 242 196 280 277 263 253 238 235 242 246 249 251 252 251 250 245 239 233 232 239 246 251 256 259 258 253 246 242 241 242 244 246 246 246 247 247 248 248 248 249 250 251 252 253 254 254 256 257 257 256 255 253 251 248 244 240 238 237 234 232 232 233 236 238 240 241 239 236 241 246 249 252 251 247 240 235 231 230 233 236
234 255 317 9 84 105 136 145 220 167 29 310 224 160 185 265 276 280 219 256 269 263 258 249 243 246 246 241 237 233 233 237 241 242 238 229 230 241 253 259 260 254 249 247 242 240 242 244 247 247 248 249 249 250 251 252 253 254 254 255 256 256 256 256 257 258 258 255 253 250 246 243 241 238 235 233 232 233 233 234 236 238 240 238 237 240 245 250 255 253 247 240 234 231 229 233 237
197 203 95 64 82 73 71 118 115 62 16 252 202 174 224 255 264 278 271 234 251 257 254 251 240 233 221 208 207 217 226 231 232 228 227 226 220 230 245 245 237 237 240 243 242 241 244 246 249 251 251 252 252 253 255 255 256 256 257 257 258 259 259 259 259 259 260 258 253 249 245 243 241 237 235 232 231 232 233 234 235 237 238 237 236 239 245 251 254 253 251 245 238 231 228 233 238
153 164 118 98 117 68 32 79 84 47 270 247 198 186 208 268 251 244 247 218 217 242 265 234 93 109 152 179 198 218 228 222 212 209 204 199 193 191 189 174 173 211 231 238 243 244 247 249 251 254 254 255 257 258 259 260 260 260 260 260 261 261 262 261 260 259 260 259 254 249 246 244 241 237 235 233 231 231 232 234 235 235 237 237 237 241 248 253 252 250 249 246 242 236 233 236 236
123 148 131 120 32 48 17 355 75 242 251 270 255 193 196 247 244 229 252 251 177 185 233 131 118 137 171 187 208 221 221 213 206 205 198 191 190 184 176 183 239 269 267 259 257 253 251 252 254 256 258 260 262 263 265 265 265 265 265 265 265 265 264 263 262 260 260 260 258 252 248 246 243 238 235 233 231 230 231 233 233 232 234 236 239 245 249 250 249 248 246 244 243 243 243 241 235
140 161 121 110 306 22 333 241 159 230 240 270 325 358 244 246 241 244 277 285 262 226 217 183 137 160 179 185 223 242 232 226 219 210 203 200 202 200 205 246 281 283 275 265 260 257 255 256 257 261 263 265 268 269 271 271 270 270 270 269 269 267 266 264 264 262 261 260 259 255 251 248 245 241 237 235 232 230 229 231 230 230 234 238 244 248 247 245 245 246 247 247 247 247 250 248 239
192 171 140 147 176 203 237 225 212 235 247 295 325 347 270 276 268 233 243 256 257 253 236 228 207 221 246 252 256 260 250 241 232 220 214 217 221 224 230 256 283 284 275 264 259 257 259 260 262 265 267 269 272 275 277 277 277 277 275 274 272 269 268 266 265 264 262 261 260 257 254 251 248 245 241 237 234 230 227 230 232 234 239 244 248 247 244 243 244 247 250 254 257 255 253 249 244
200 186 162 177 174 192 214 188 213 228 244 310 316 292 213 224 291 242 253 285 276 277 272 265 274 275 276 271 265 262 253 245 236 226 226 233 235 238 242 259 279 278 267 259 256 256 258 261 262 265 269 271 274 278 281 283 284 283 280 278 276 273 272 270 267 265 262 262 261 259 257 254 251 249 243 238 237 232 228 229 232 235 241 247 246 242 242 245 247 250 253 258 262 257 248 243 242
223 202 186 217 202 186 184 165 188 162 25 295 249 250 221 210 282 279 294 305 289 281 281 278 274 276 289 296 289 276 261 251 241 234 237 243 247 253 258 265 270 265 255 251 250 250 251 253 258 263 269 273 278 282 285 286 286 285 284 283 281 278 276 274 271 268 265 262 262 261 260 257 254 250 244 238 237 236 232 231 233 237 242 243 241 242 249 251 250 253 257 261 260 251 243 242 240
211 178 202 218 136 117 167 257 38 100 263 262 188 255 276 302 292 269 253 262 261 262 274 277 274 279 293 292 291 287 273 261 254 250 250 252 257 264 266 262 256 250 245 242 239 238 239 239 245 253 260 266 275 281 285 289 290 292 291 288 286 283 280 279 278 276 272 266 262 261 260 257 254 251 244 236 234 236 235 235 238 239 239 237 240 250 255 250 248 252 256 259 256 247 243 245 243
137 175 212 122 40 32 132 225 350 124 246 266 186 249 280 298 277 278 268 265 262 250 249 260 268 272 279 285 295 302 295 285 283 278 272 268 267 267 260 249 243 240 235 230 226 225 223 222 228 237 248 258 272 283 292 300 299 299 297 294 291 288 286 285 284 282 278 271 266 262 260 258 254 251 244 234 233 234 233 234 237 236 235 237 244 251 250 246 248 254 254 254 253 247 245 247 244
106 192 252 95 120 260 141 175 240 212 238 272 254 257 268 248 247 300 312 266 248 235 221 226 245 261 283 299 311 318 315 312 310 306 298 289 278 265 254 245 239 233 225 221 220 217 215 220 229 236 247 264 279 290 297 301 302 301 298 295 294 292 291 290 288 286 283 278 273 267 262 259 255 252 245 235 235 235 232 233 233 233 236 241 246 246 243 244 251 255 254 251 249 247 246 246 243
33 353 345 89 146 182 173 189 202 190 211 252 272 278 260 241 230 235 247 237 217 208 195 176 151 38 350 334 325 322 321 322 328 328 319 307 281 259 254 251 240 228 222 219 219 218 218 222 227 235 252 267 276 284 289 293 297 298 295 292 292 293 293 290 288 289 288 285 280 272 265 259 254 251 245 237 236 235 232 234 235 237 240 243 245 244 241 245 252 255 254 250 248 249 248 244 240
152 293 225 185 132 110 187 257 190 171 192 224 257 272 260 244 185 199 230 231 178 153 125 98 52 13 345 328 317 313 316 322 326 324 320 314 290 266 260 257 241 226 223 220 219 219 218 220 225 236 251 260 266 271 275 280 284 286 286 287 289 292 292 289 287 288 288 287 282 275 269 259 251 248 243 238 236 233 233 236 238 240 242 244 246 243 240 245 251 253 252 248 247 250 248 241 235
187 195 198 196 191 156 196 251 221 177 202 215 218 264 270 251 130 125 108 88 86 87 75 13 344 333 318 309 300 299 316 325 318 309 306 308 298 284 273 259 242 231 227 224 225 223 219 221 228 239 249 257 263 265 268 271 273 275 278 281 284 289 291 289 286 285 285 285 281 276 270 261 252 247 242 238 235 233 236 239 241 242 242 242 243 242 242 244 245 249 252 249 248 250 244 236 232